Location: Deuil
(48.9767°N, 2.3272°E)
Time: 01:59:00
(UTC+00:00)

Cosmos 2360 Rocket - Pass Details

Date: 26 May 2022
Orbit: 832 x 846 km, 71.0° (Epoch: 03 July)

Event Time Altitude Azimuth Distance (km) Brightness Sun altitude
Rises 01:20:56 0° 268° (W) 3,387 5.1 -16.9°
Reaches altitude 10° 01:24:28 10° 291° (WNW) 2,459 4.6 -16.7°
Maximum altitude 01:27:45 16° 327° (NNW) 2,098 4.7 -16.5°
Drops below altitude 10° 01:31:03 10° 3° (N) 2,471 5.7 -16.2°
Sets 01:34:37 0° 25° (NNE) 3,412 7.2 -16.0°
